DW4391 Weather Reports


time (UTC)temp
F
wind
direction
speed
knots
gust
knots
rain 1hr
in
rain 24hr
in
rain mn
in
humidity
%
barometer
mb
20260901074559 71 110 0.0 0.0 0.00 0.00 0.00 93 1015.7
20260901073059 71 110 0.0 0.0 0.00 0.00 0.00 92 1015.6
20260901071556 71 110 0.0 0.0 0.00 0.00 0.00 93 1015.7
20260901070110 71 110 0.0 0.0 0.00 0.00 0.00 92 1015.8
20260901064604 72 110 0.0 0.0 0.00 0.00 0.00 92 1015.9
20260901063059 72 110 0.0 0.0 0.00 0.00 0.00 91 1016.0
20260901061601 72 110 0.0 0.0 0.00 0.00 0.00 91 1016.1
20260901060045 72 110 0.0 0.0 0.00 0.00 0.00 91 1016.1
20260901054549 72 110 0.0 0.0 0.00 0.00 0.00 89 1016.1
20260901053042 73 110 0.0 0.0 0.00 0.00 0.00 89 1016.2
20260901051541 73 110 0.0 0.0 0.00 0.00 0.00 89 1016.3
20260901050039 73 110 0.0 0.0 0.00 0.00 0.00 88 1016.3
20260901044549 73 110 0.0 0.0 0.00 0.00 0.00 88 1016.1
20260901043036 74 110 0.0 0.0 0.00 0.00 0.00 87 1016.1
20260901041535 74 110 0.0 0.0 0.00 0.00 0.00 87 1016.1
20260901040037 74 110 0.0 0.0 0.00 0.00 0.00 86 1016.1
20260901034531 74 110 0.0 0.0 0.00 0.00 0.00 86 1016.2
20260901033030 75 110 0.0 0.0 0.00 0.00 0.00 84 1016.2
20260901031529 75 110 0.0 0.0 0.00 0.00 0.00 84 1016.2
20260901030034 75 110 0.0 0.0 0.00 0.00 0.00 83 1016.2
20260901024532 76 110 0.0 0.0 0.00 0.00 0.00 82 1016.2
20260901023028 76 110 0.0 0.0 0.00 0.00 0.00 82 1016.2
20260901021530 76 110 0.0 0.0 0.00 0.00 0.00 81 1016.1
20260901020034 77 110 0.0 0.0 0.00 0.00 0.00 80 1015.9
20260901014526 77 110 0.0 0.0 0.00 0.00 0.00 80 1015.9
20260901013026 78 110 0.0 0.0 0.00 0.00 0.00 80 1015.7
20260901011528 79 110 0.0 0.0 0.00 0.00 0.00 81 1015.4
20260901010025 79 110 0.0 0.0 0.00 0.00 0.00 78 1015.2
20260901004525 80 110 0.0 0.0 0.00 0.00 0.00 76 1015.1
20260901003031 82 110 0.0 0.0 0.00 0.00 0.00 76 1015.0
20260901001528 83 110 0.0 0.0 0.00 0.00 0.00 71 1014.9
20260901000022 83 110 0.0 0.0 0.00 0.00 0.00 68 1014.8
20260831234522 84 110 0.0 0.0 0.00 0.00 0.00 66 1014.8
20260831233020 85 110 0.0 0.0 0.00 0.00 0.00 65 1014.9
20260831231530 86 110 0.0 0.0 0.00 0.00 0.00 64 1015.0
20260831230027 86 110 0.0 0.0 0.00 0.00 0.00 63 1014.9
20260831224543 86 110 0.0 0.0 0.00 0.00 0.00 61 1015.0
20260831223018 87 110 0.0 0.0 0.00 0.00 0.00 61 1015.0
20260831221516 87 80 0.0 0.9 0.00 0.00 0.00 61 1015.1
20260831220015 87 48 0.0 0.9 0.00 0.00 0.00 62 1015.2
20260831214513 87 49 0.0 0.0 0.00 0.00 0.00 60 1015.3
20260831213014 88 49 0.0 0.9 0.00 0.00 0.00 58 1015.4
20260831211512 88 92 0.0 0.9 0.00 0.00 0.00 59 1015.4
20260831210016 87 114 0.0 0.9 0.00 0.00 0.00 60 1015.5
20260831204510 88 291 0.0 2.6 0.00 0.00 0.00 60 1015.5
20260831203020 88 54 0.0 0.0 0.00 0.00 0.00 61 1015.7
20260831201506 87 97 0.0 0.0 0.00 0.00 0.00 59 1015.8
20260831200005 86 312 0.0 0.0 0.00 0.00 0.00 61 1015.8
20260831194508 87 44 0.0 0.0 0.00 0.00 0.00 64 1016.2
20260831193006 87 44 0.0 0.9 0.00 0.00 0.00 63 1016.4
20260831191503 87 24 0.0 2.6 0.00 0.00 0.00 63 1016.4
20260831190003 87 49 0.0 0.9 0.00 0.00 0.00 64 1016.6
20260831184601 86 79 0.0 0.9 0.00 0.00 0.00 63 1016.7
20260831183101 87 7 0.0 0.9 0.00 0.00 0.00 65 1017.0
20260831181600 87 8 0.0 1.7 0.00 0.00 0.00 64 1017.2
20260831180058 88 39 0.0 0.0 0.00 0.00 0.00 68 1017.3
20260831174557 88 38 0.0 0.0 0.00 0.00 0.00 68 1017.4
20260831173056 88 35 0.0 1.7 0.00 0.00 0.00 68 1017.6
20260831171551 85 210 0.0 1.7 0.00 0.00 0.00 69 1017.7
20260831170049 85 63 0.0 0.9 0.00 0.00 0.00 71 1017.9
20260831164546 84 96 0.9 2.6 0.00 0.00 0.00 73 1018.1
20260831163044 83 117 0.0 1.7 0.00 0.00 0.00 75 1018.3
20260831161541 82 79 0.0 0.9 0.00 0.00 0.00 79 1018.3
20260831160042 82 328 0.0 1.7 0.00 0.00 0.00 80 1018.4
20260831154601 81 24 0.0 0.0 0.00 0.00 0.00 83 1018.6
20260831153035 81 24 0.0 0.9 0.00 0.00 0.00 83 1018.6
20260831151537 80 330 0.0 0.9 0.00 0.00 0.00 85 1018.6
20260831150030 79 349 0.0 0.0 0.00 0.00 0.00 86 1018.6
20260831144529 79 349 0.0 0.9 0.00 0.00 0.00 86 1018.5
20260831143025 78 338 0.0 0.9 0.00 0.00 0.00 88 1018.4
20260831141521 77 4 0.0 0.0 0.00 0.00 0.00 90 1018.4
20260831140018 75 10 0.0 0.0 0.00 0.00 0.00 92 1018.5
20260831134515 74 63 0.0 0.0 0.00 0.00 0.00 96 1018.4
20260831133013 74 63 0.0 0.0 0.00 0.00 0.00 97 1018.5
20260831131512 73 63 0.0 0.0 0.00 0.00 0.00 98 1018.6
20260831130011 72 63 0.0 0.0 0.00 0.00 0.00 98 1018.6
20260831124523 71 63 0.0 0.0 0.00 0.00 0.00 98 1018.5
20260831123009 70 63 0.0 0.0 0.00 0.00 0.00 98 1018.4
20260831121509 70 63 0.0 0.0 0.00 0.00 0.00 98 1018.3
20260831120004 70 63 0.0 0.0 0.00 0.00 0.00 98 1018.0
20260831114503 70 63 0.0 0.0 0.00 0.00 0.00 97 1017.8
20260831113002 70 63 0.0 0.0 0.00 0.00 0.00 97 1017.7
20260831111601 70 63 0.0 0.0 0.00 0.00 0.00 97 1017.6
20260831110105 70 63 0.0 0.0 0.00 0.00 0.00 97 1017.5
20260831104557 70 63 0.0 0.0 0.00 0.00 0.00 97 1017.3
20260831103056 70 63 0.0 0.0 0.00 0.00 0.00 97 1017.4
20260831101600 70 63 0.0 0.0 0.00 0.00 0.00 97 1017.0
20260831100104 70 63 0.0 0.0 0.00 0.00 0.00 97 1016.9
20260831094605 70 63 0.0 0.0 0.00 0.00 0.00 97 1016.8
20260831093053 70 63 0.0 0.0 0.00 0.00 0.00 97 1016.9
20260831091553 71 63 0.0 0.0 0.00 0.00 0.00 97 1016.9
20260831090048 71 63 0.0 0.0 0.00 0.00 0.00 96 1016.8
20260831084548 71 63 0.0 0.0 0.00 0.00 0.00 97 1016.7
20260831083045 71 63 0.0 0.0 0.00 0.00 0.00 96 1016.7
20260831081542 71 63 0.0 0.0 0.00 0.00 0.00 96 1016.7
20260831080041 71 63 0.0 0.0 0.00 0.00 0.00 96 1016.7